Regional Weather Roundup
Issued by NWS

Home | Current Version | Previous Version | Graphics & Text | Print | Product List | Glossary On
Versions: 1 2 3 4 5 6 7 8 9 10 11 12 13 14 15 16 17 18 19 20 21 22 23 24 25 26 27 28 29 30 31 32 33 34 35 36 37 38 39 40 41 42 43 44 45 46 47 48 49 50
000
ASUS43 KIND 010509
RWRIN

WEATHER ROUNDUP FOR INDIANA
NATIONAL WEATHER SERVICE INDIANAPOLIS IN
100 AM EDT TUE SEP 01 2015

NOTE: "FAIR" INDICATES FEW OR NO CLOUDS BELOW 12,000 FEET WITH NO
SIGNIFICANT WEATHER AND/OR OBSTRUCTIONS TO VISIBILITY.

* - STATION DOES NOT REPORT WEATHER SUCH AS PRECIPITATION OR FOG.

+ - STATION NOT QUALITY CONTROLLED BY THE NATIONAL WEATHER SERVICE.
    USE DATA WITH CAUTION...ESPECIALLY DEWPOINT AND RELATIVE
    HUMIDITY OBSERVATIONS.

INZ001>003-010>013-019-020-010600-
NORTHWEST INDIANA

CITY           SKY/WX    TMP DP  RH WIND       PRES   REMARKS
GARY /AIRPORT/ CLEAR     70  67  88 CALM      30.06S
KNOX *+        CLEAR     68  68 100 S3        30.07S
LA PORTE +     FOG      N/A N/A N/A CALM      30.08S VSB 1/4
MICHIGAN CITY+ FOG       68  68 100 CALM      30.07S VSB 1
MONTICELLO +   CLEAR     73  71  92 S3        30.07S
RENSSELAER +   CLEAR     70  70 100 CALM      30.08S
VALPARAISO     FOG       70  68  93 CALM      30.07S VSB 1/4

$$

LMZ046-743>745-010600-
SOUTHERN LAKE MICHIGAN

STATION/POSITION TIME  TEMP    WIND        PRES    WAVE
                       AIR SEA DIR/SP/G            HT
                 (UTC) (F)     (DEG/KT/KT) (MB)    (FT)
MICHIGAN CITY    0400   75     120/  6/  8   N/A
5NW MICH CITY    0500   73 72  170/  4/  6   N/A     0

$$

INZ004-005-014>016-021>024-010600-
NORTH CENTRAL INDIANA

CITY           SKY/WX    TMP DP  RH WIND       PRES   REMARKS
GOSHEN         PTCLDY    69  67  93 CALM      30.08S FOG
LOGANSPORT +   PTCLDY    70  64  83 S3        30.09S
ROCHESTER +    PTCLDY    75  70  83 SW3       30.09R
SOUTH BEND     CLEAR     73  68  84 SE3       30.08S
WARSAW +       PTCLDY    72  68  88 CALM      30.09R

$$

INZ006>009-017-018-025>027-010600-
NORTHEAST INDIANA

CITY           SKY/WX    TMP DP  RH WIND       PRES   REMARKS
ANGOLA *+      CLOUDY    68  57  68 CALM      30.10R VSB 0
AUBURN +       PTCLDY    70  68  94 CALM      30.10R FOG
FORT WAYNE     PTCLDY    72  69  90 SW3       30.10S
HUNTINGTON +   CLOUDY    73  64  75 SW3       30.09S

$$

INZ028-029-035-036-043>045-051>053-010600-
WEST CENTRAL INDIANA

CITY           SKY/WX    TMP DP  RH WIND       PRES   REMARKS
CRAWFORDSVL +  CLEAR     65  65 100 SE3       30.10R
GREENCASTLE +  CLEAR     66  63  88 CALM      30.11R FOG
LAFAYETTE      CLEAR     70  67  90 CALM      30.08R
TERRE HAUTE    CLEAR     68  66  93 CALM      30.09R

$$

INZ030>032-037>040-046>048-054>057-064-065-010600-
CENTRAL INDIANA

CITY           SKY/WX    TMP DP  RH WIND       PRES   REMARKS
FRANKFORT +    CLEAR    N/A N/A N/A CALM      30.11S
GREENWOOD *+   CLEAR     70  66  88 CALM      30.11S
INDIANAPOLIS   PTCLDY    74  67  78 S5        30.10R
-EAGLE CREEK   CLEAR     72  68  87 CALM      30.10R
KOKOMO *+      MOCLDY    70  64  83 SW3       30.10R
MARION +       PTCLDY    70  63  80 CALM      30.11S
MT COMFORT *+  CLEAR     70 N/A N/A S5        30.11S
SHELBYVILLE    CLEAR     69  65  86 CALM      30.10S
ZIONSVILLE +   CLEAR     68  64  89 CALM      30.11S

$$

INZ033-034-041-042-049-050-058-059-010600-
EAST CENTRAL INDIANA

CITY           SKY/WX    TMP DP  RH WIND       PRES   REMARKS
MUNCIE         PTCLDY    68  66  93 CALM      30.11S

$$

INZ060-061-067>069-081>083-085>088-010600-
SOUTHWEST INDIANA

CITY           SKY/WX    TMP DP  RH WIND       PRES   REMARKS
EVANSVILLE     CLEAR     72  68  87 CALM      30.10R
HUNTINGBURG *+ CLEAR     70  64  83 CALM      30.10S
WASHINGTON +   CLEAR     69  65  88 CALM      30.10R

$$

INZ062-063-066-070>080-084-089>092-010600-
SOUTH CENTRAL AND SOUTHEAST INDIANA

CITY           SKY/WX    TMP DP  RH WIND       PRES   REMARKS
BLOOMINGTON    CLEAR     68  66  93 CALM      30.12R
MADISON *+     CLEAR     66  63  88 CALM      30.14S
NORTH VERNON + CLEAR     70  70 100 CALM      30.12S FOG
SEYMOUR +      CLEAR     68  66  94 CALM      30.11R FOG

$$




USA.gov is the U.S. government's official web portal to all federal, state and local government web resources and services.